Погода в Новом Порте

Россия / Ямало-Ненецкий автономный округ     67°41′37″N   72°53′48″E
темп.,
°C
ветер,
м/с
пор.,
м/с
влажн.,
%
обл.,
%
осадки,
мм/ч
давл.,
гПа
погр.,
м
14 июня, пн
пн1423:00+10ю446912 0.0 101232
02:00+12св45727 0.2 101167
05:00+9св128792 1.6 101170
08:00+12сз4676100 0.4 1011298
11:00+12в237878 1.4 1010251
14:00+10юв118351 0.1 1009241
17:00+9вюв338798 0.1 100969
20:00+8ю338646 0.0 100848
15 июня, вт
вт1523:00+6ю339282 0.1 100735
02:00+7ю348688 0.0 100547
05:00+6ю349194 0.0 100452
08:00+7ю469561 0.1 1003104
11:00+9ю479152 0.6 1001128
14:00+11ю5788100 3.1 1000126
17:00+13сз798962 7.3 1001300
20:00+11ссз71289100 0.4 1003308
16 июня, ср
ср1623:00+9с51089100 0.6 1004383
02:00+7с6138725 0.0 1005331
05:00+7с7117353 0.0 1006318
08:00+8с69717 0.0 1007352
11:00+10с57550 0.0 1007476
14:00+9в135213 0.0 1007281
17:00+5ююв336742 0.0 1008134
20:00+6ю117012 0.0 100757
17 июня, чт
чт1723:00+5ююз33705 0.0 100727
02:00+5ююз337057 0.0 100631
05:00+5ю35710 0.0 100574
08:00+6ю46660 0.0 1004108
11:00+8ю58600 0.0 1003161
14:00+9ююв47574 0.0 1001175
17:00+11юв34511 0.0 1000132
20:00+8в45564 0.0 99859
18 июня, пт
пт1823:00+6в336283 0.0 99735
02:00+7ссв5664100 0.0 99681
05:00+6с677073 0.0 995182
08:00+6с71175100 0.3 996254
11:00+5ссз71190100 4.6 998316
14:00+4ссз101585100 0.1 1000428
17:00+4ссз101686100 0.1 1003492
20:00+4ссз9157797 0.0 1004502